Strona główna
METAR-TAF:

METAR-TAF

Lotnisko :

Platforma wiertnicza

K13-a, Holandia

Szerokość geograficzna: 53-13-04N, Długość geograficzna: 3-13-13E, wysokość: 31 m

Aktualna obserwacja pogody

Raport powstał 20 minut temu, godzina 08:55 UTC
Wiatr 13 kt od wschodnio-południowy wschód
Temperatura 8°C
Wilgotność 76%
Ciśnienie 1029 hPa

METAR: EHJR 100855Z AUTO 12013KT //// // ///////// 08/04 Q1029 RE// W09/H10

czas: 11:15 (09:15 UTC)


TAF: brakujący

Obserwacja i prognoza pogody dla ponad 4000 lotnisk (raport METAR i TAF).

Dostępne stacje oznaczono żółtymi i czerwonymi punktami na mapie.

Najedź kursorem aby zobaczyć nazwę stacji.

Kliknij aby zobaczyć obserwacje i prognozy pogody.

Aby zmienić mapę: kliknij na zielony przycisk z czarnym krzyżykiem, aby powiększyć; na zielony przycisk z myślnikiem, aby pomniejszyć; na zielone strzałki, aby przejść do map sąsiednich.


METAR-TAF: